Kodiak, AK

4:03 AM AKDT on May 28, 2017 (GMT -0800)
Kodiak

Weather History for PADQ - October, 2013

Change the Weather History Date:

Monday, October 7, 2013

  Actual Average Record
Temperature  
Mean Temperature 45 °F 43 °F  
Max Temperature 52 °F 49 °F 60 °F (1970)
Min Temperature 37 °F 37 °F 23 °F (1924)
Degree Days  
Heating Degree Days 20 22  
Month to date heating degree days 145 149  
Since 1 July heating degree days 1064 1250  
Cooling Degree Days 0 0  
Month to date cooling degree days 0 0  
Year to date cooling degree days 6 1  
Moisture  
Dew Point 40 °F    
Average Humidity 0    
Maximum Humidity 0    
Minimum Humidity 0    
Precipitation  
Precipitation 0.04 in 0.27 in 2.49 in (1990)
Month to date precipitation 2.21 1.96  
Year to date precipitation 49.66 56.10  
Snow  
Snow 0.00 in 0.00 in - ()
Month to date snowfall 0.0 0.0  
Since 1 July snowfall 0.0 0.0  
Since 1 September snowfall 0.0 0.0  
Snow Depth 0.00 in    
Sea Level Pressure  
Sea Level Pressure 29.80 in    
Wind  
Wind Speed 6 mph (South)    
Max Wind Speed 20 mph    
Max Gust Speed 28 mph    
Visibility 10 miles    
Events Rain    
T = Trace of Precipitation, MM = Missing Value Source: NWS Daily Summary

Daily Weather History Graph

Daily Weather History Graph

Search for Another Location

Airport or City:

Trip Planner

Search our weather history database for the weather conditions in past years. The results will help you decide how hot, cold, wet, or windy it might be!

Date:

Astronomy

Oct. 07, 2013 Rise Set
Actual Time 8:28 AM AKDT 7:26 PM AKDT
Civil Twilight 7:49 AM AKDT 8:04 PM AKDT
Nautical Twilight 7:03 AM AKDT 8:49 PM AKDT
Astronomical Twilight 6:17 AM AKDT 9:36 PM AKDT
Moon 12:12 PM AKDT (10/7) 8:34 PM AKDT (10/7)
Length of Visible Light 12h 15m
Length of Day
10h 58m
Waxing Crescent, 9% of the Moon is Illuminated
Oct 7
Waxing Crescent
Oct 11
First Quarter
Oct 18
Full
Oct 26
Last Quarter
Nov 3
New

Hourly Weather History & Observations

Time (AKDT) Temp. Windchill Dew Point Humidity Pressure Visibility Wind Dir Wind Speed Gust Speed Precip Events Conditions
12:53 AM 39.9 °F 35.8 °F 34.0 °F 79% 29.82 in 10.0 mi West 5.8 mph - N/A   Scattered Clouds
2:53 AM 41.0 °F - 35.1 °F 79% 29.83 in 10.0 mi Calm Calm - N/A   Partly Cloudy
3:53 AM 39.9 °F - 36.0 °F 86% 29.82 in 10.0 mi Calm Calm - N/A   Scattered Clouds
4:53 AM 39.0 °F 36.8 °F 36.0 °F 89% 29.84 in 10.0 mi WNW 3.5 mph - N/A   Scattered Clouds
5:53 AM 39.0 °F - 36.0 °F 89% 29.85 in 10.0 mi Calm Calm - N/A   Scattered Clouds
6:53 AM 41.0 °F - 37.0 °F 86% 29.85 in 10.0 mi Calm Calm - N/A   Overcast
7:53 AM 41.0 °F - 37.0 °F 86% 29.85 in 10.0 mi Calm Calm - N/A   Mostly Cloudy
8:53 AM 42.1 °F 37.7 °F 39.0 °F 89% 29.86 in 10.0 mi West 6.9 mph - N/A   Mostly Cloudy
9:53 AM 43.0 °F 41.3 °F 39.0 °F 86% 29.86 in 10.0 mi West 3.5 mph - N/A   Mostly Cloudy
10:53 AM 46.0 °F - 41.0 °F 83% 29.86 in 10.0 mi Calm Calm - 0.00 in Rain Light Rain
11:53 AM 46.9 °F - 41.0 °F 80% 29.85 in 10.0 mi Calm Calm - 0.00 in   Mostly Cloudy
12:53 PM 50.0 °F - 39.9 °F 68% 29.85 in 10.0 mi ENE 3.5 mph - N/A   Mostly Cloudy
1:53 PM 51.1 °F - 41.0 °F 68% 29.84 in 10.0 mi SE 4.6 mph - N/A   Mostly Cloudy
2:53 PM 51.1 °F - 41.0 °F 68% 29.82 in 10.0 mi SSW 8.1 mph - N/A   Mostly Cloudy
3:53 PM 51.1 °F - 41.0 °F 68% 29.81 in 10.0 mi South 11.5 mph - N/A   Mostly Cloudy
4:53 PM 51.1 °F - 42.1 °F 71% 29.81 in 10.0 mi South 4.6 mph - 0.00 in Rain Light Rain
5:53 PM 50.0 °F - 42.1 °F 74% 29.78 in 10.0 mi South 12.7 mph - 0.00 in   Overcast
6:53 PM 50.0 °F - 43.0 °F 77% 29.76 in 10.0 mi South 10.4 mph - N/A   Overcast
7:53 PM 48.9 °F - 44.1 °F 83% 29.74 in 10.0 mi SE 3.5 mph - 0.00 in   Overcast
8:53 PM 50.0 °F - 45.0 °F 83% 29.71 in 10.0 mi SSE 10.4 mph - N/A   Overcast
9:53 PM 50.0 °F - 46.0 °F 86% 29.68 in 10.0 mi SE 15.0 mph - N/A   Overcast
10:53 PM 50.0 °F - 46.9 °F 89% 29.63 in 10.0 mi SE 15.0 mph - 0.01 in Rain Light Rain
11:53 PM 51.1 °F - 46.0 °F 83% 29.59 in 10.0 mi SSE 17.3 mph 27.6 mph 0.02 in Rain Light Rain